Regional Weather Roundup
Issued by NWS

Home | Current Version | Previous Version | Graphics & Text | Print | Product List | Glossary On
Versions: 1 2 3 4 5 6 7 8 9 10 11 12 13 14 15 16 17 18 19 20 21 22 23 24 25 26 27 28 29 30 31 32 33 34 35 36 37 38 39 40 41 42 43 44 45 46 47 48 49 50
000
ASUS43 KDMX 251307
RWRIA

WEATHER ROUNDUP FOR IOWA
NATIONAL WEATHER SERVICE DES MOINES IA
700 AM CST TUE NOV 25 2014

NOTE: "FAIR" INDICATES FEW OR NO CLOUDS BELOW 12,000 FEET WITH NO
SIGNIFICANT WEATHER AND/OR OBSTRUCTIONS TO VISIBILITY.

* - THESE STATIONS ARE NOT NWS STATIONS...THUS NOT UNDER NWS
QUALITY CONTROL.  THEY ALSO DO NOT REPORT WEATHER SUCH
AS PRECIPITATION OR FOG.

IAZ001>003-012>014-020>022-031>034-043>046-251400-
   NORTHWEST IOWA

CITY           SKY/WX    TMP DP  RH WIND       PRES   REMARKS
CARROLL *      CLEAR     14   7  73 W5        30.09S WCI   6
CHEROKEE *     CLEAR     12   9  85 CALM      30.08S
DENISON *      CLEAR     14   7  73 W5        30.09R WCI   6
LE MARS *      CLEAR     12   9  85 S5        30.09F WCI   4
ORANGE CITY *  CLEAR     10   7  85 W6        30.06S WCI   1
SHELDON *      CLEAR      9   5  85 SW5       30.05R WCI   0
SIOUX CITY     CLEAR     14   7  73 CALM      30.10S
SPENCER        CLEAR      9   4  80 W7        30.05S WCI  -2
STORM LAKE *   CLEAR     10   5  79 W10       30.07R WCI  -3
$$

IAZ055>058-069>071-079>083-090>094-251400-
   SOUTHWEST IOWA

CITY           SKY/WX    TMP DP  RH WIND       PRES   REMARKS
ATLANTIC *     CLEAR     14   9  79 S7        30.12S WCI   4
AUDUBON *      CLEAR     16   7  67 W3        30.10R
CLARINDA *     CLEAR     16  10  79 CALM      30.17F
COUNCIL BLFS * CLEAR     18   7  62 W7        30.11F WCI   8
CRESTON *      CLEAR     14   9  79 W7        30.12S WCI   4
HARLAN  *      CLEAR     14   9  79 S5        30.15S WCI   6
LAMONI         CLEAR     17  11  77 W7        30.13R WCI   8
RED OAK *      CLEAR     16  10  79 CALM      30.15S
SHENANDOAH *   CLEAR     16  10  79 SW5       30.17S WCI   9
$$

IAZ047>049-059>061-072>074-084-251400-
   CENTRAL IOWA

CITY           SKY/WX    TMP DP  RH WIND       PRES   REMARKS
AMES           CLEAR     15  10  80 W5        30.10S WCI   8
ANKENY *       CLEAR     18  12  79 W7        30.12R WCI   8
CHARITON *     CLEAR     18  12  79 W7        30.12R WCI   8
DES MOINES     CLEAR     17  11  77 NW6       30.12S WCI   9
GRINNELL*      CLEAR     16  12  86 W6        30.10R WCI   7
KNOXVILLE *    CLEAR     16  10  79 W5        30.11R WCI   9
MARSHALLTOWN   CLEAR     12   9  87 W7        30.09R WCI   1
PELLA *        CLEAR     18  14  86 W7        30.13R WCI   8
PERRY *          N/A     14  12  92 W8        30.11S WCI   3
$$

IAZ004>006-015-016-023>025-035-036-251400-
   NORTH CENTRAL IOWA

CITY           SKY/WX    TMP DP  RH WIND       PRES   REMARKS
ALGONA *       CLEAR     12   7  79 W7        30.06S WCI   2
CLARION *      CLEAR     12   9  85 W6        30.07S WCI   3
ESTHERVILLE    CLEAR      9   3  77 W6        30.04R WCI  -1
FORT DODGE *   CLEAR     12   7  79 W5        30.09R WCI   4
MASON CITY     CLEAR      8   5  87 NW7       30.06R WCI  -3
FOREST CITY *  CLEAR     12   9  85 W7        30.05R WCI   2
IOWA FALLS *     N/A     10   7  85 W7        30.07F WCI   0
$$

IAZ007>011-017>019-026>030-037>042-050>054-066-251400-
   NORTHEAST IOWA

CITY           SKY/WX    TMP DP  RH WIND       PRES   REMARKS
CEDAR RAPIDS   MOCLDY    15  11  83 NW12      30.07R WCI   2
CHARLES CITY * CLEAR      7   3  85 W7        30.05S WCI  -5
CLINTON *      CLEAR     14   9  79 W13       30.09R WCI   0
DECORAH *      CLOUDY    12   7  79 W7        30.01R WCI   2
DUBUQUE        PTCLDY    13  10  88 W8        30.02R WCI   2
MONTICELLO *   CLOUDY    14   9  79 W9G16     30.06R WCI   2
OELWEIN *      CLEAR     10   7  85 W8        30.06R WCI  -1
WATERLOO       CLEAR     10   7  87 W7        30.08R WCI  -1
$$

IAZ064-065-067-068-078-251400-
   EAST CENTRAL IOWA

CITY           SKY/WX    TMP DP  RH WIND       PRES   REMARKS
DAVENPORT      FLURRIES  16  10  77 W10       30.08R WCI   4
MT. PLEASANT * CLOUDY    23  18  80 W10       30.10S WCI  12
MUSCATINE *    CLOUDY    21  14  73 NW9       30.11R WCI  11
QUAD CITIES    MOCLDY    17  10  74 W12       30.09R WCI   4
$$

IAZ062-063-075>077-085>089-095>099-251400-
   SOUTHEAST IOWA

CITY           SKY/WX    TMP DP  RH WIND       PRES   REMARKS
BURLINGTON     CLOUDY    22  17  81 NW6       30.10R WCI  14
FAIRFIELD *    MOCLDY    21  14  73 NW16G22   30.10S WCI   7
FORT MADISON * CLOUDY    25  19  80 NW10G17   30.11R WCI  15
KEOKUK *       CLOUDY    27  21  80 W8G15     30.11R WCI  18
OSKALOOSA *      N/A     18  14  86 NW7       30.12S WCI   8
CENTERVILLE *  CLEAR     18  16  93 W5        30.13R WCI  11
OTTUMWA        CLEAR     19  12  74 NW15      30.11S WCI   5
WASHINGTON *   CLOUDY    21  19  93 NW10G17   30.10R WCI  10
$$

ABBREVIATIONS USED IN REMARKS
   TC - TEMPERATURES IN CELSIUS
  WCI - WIND CHILL INDEX
   HX - HEAT INDEX
  VSB - VISIBILITY
$$



USA.gov is the U.S. government's official web portal to all federal, state and local government web resources and services.